Total_Precipitation_Accumulation
2.04 1.99 1.89 1.91 1.85 1.80 1.72 1.63 1.52 1.45 1.34 1.19 1.04 0.99 0.97 0.92 0.86 0.86 0.86 0.85 0.90 0.92 0.92 1.01 1.13 1.19 1.30 1.38 1.45 1.49 1.58 1.62 1.62 1.51 1.42 1.41 1.36 1.33 1.33 1.20 1.10 1.03 0.98
1.63 1.66 1.69 1.69 1.66 1.57 1.45 1.34 1.22 1.12 1.02 0.94 0.86 0.85 0.83 0.80 0.79 0.78 0.74 0.72 0.72 0.74 0.77 0.83 0.90 0.94 1.03 1.07 1.15 1.23 1.30 1.37 1.42 1.52 1.58 1.51 1.42 1.40 1.30 1.14 0.95 0.83 0.82
1.44 1.44 1.52 1.47 1.42 1.29 1.21 1.18 1.09 0.98 0.93 0.91 0.84 0.78 0.74 0.71 0.68 0.65 0.63 0.60 0.56 0.58 0.61 0.66 0.71 0.76 0.79 0.80 0.85 0.91 0.99 1.09 1.25 1.35 1.42 1.45 1.41 1.41 1.38 1.10 0.92 0.89 0.71
1.36 1.41 1.40 1.34 1.25 1.19 1.06 0.93 0.86 0.80 0.86 0.91 0.81 0.73 0.64 0.61 0.59 0.60 0.60 0.56 0.50 0.48 0.48 0.52 0.56 0.57 0.56 0.59 0.62 0.68 0.77 0.94 1.10 1.19 1.16 1.19 1.25 1.19 1.24 1.14 1.01 0.89 0.74
1.30 1.30 1.27 1.22 1.17 1.11 1.03 0.94 0.81 0.73 0.70 0.73 0.68 0.63 0.58 0.53 0.50 0.51 0.52 0.50 0.48 0.43 0.40 0.40 0.41 0.43 0.46 0.46 0.46 0.54 0.68 0.86 0.96 1.04 1.06 1.00 1.00 1.00 1.01 0.95 0.94 0.89 0.75
1.21 1.18 1.14 1.10 1.12 1.05 0.98 0.94 0.84 0.73 0.67 0.66 0.65 0.62 0.57 0.45 0.43 0.42 0.39 0.43 0.45 0.45 0.41 0.34 0.32 0.33 0.36 0.38 0.40 0.47 0.57 0.68 0.75 0.82 0.89 0.90 0.88 0.86 0.90 0.89 0.89 0.89 0.84
1.21 1.14 1.13 1.10 1.05 0.99 0.83 0.79 0.78 0.74 0.63 0.58 0.55 0.53 0.53 0.49 0.43 0.37 0.36 0.43 0.48 0.49 0.45 0.41 0.34 0.29 0.36 0.38 0.40 0.43 0.47 0.50 0.58 0.70 0.78 0.80 0.79 0.83 0.93 0.94 0.93 0.92 0.86
1.18 1.10 1.01 1.00 0.95 0.89 0.84 0.77 0.71 0.68 0.63 0.61 0.58 0.53 0.50 0.46 0.43 0.40 0.38 0.39 0.47 0.48 0.44 0.44 0.45 0.44 0.41 0.41 0.39 0.42 0.46 0.52 0.57 0.61 0.74 0.76 0.70 0.75 0.88 0.92 0.88 0.85 0.80
1.01 0.94 0.85 0.84 0.90 0.91 0.87 0.80 0.73 0.67 0.64 0.59 0.57 0.52 0.51 0.46 0.41 0.37 0.36 0.38 0.43 0.39 0.34 0.36 0.37 0.39 0.38 0.40 0.41 0.46 0.48 0.52 0.49 0.55 0.60 0.65 0.71 0.73 0.74 0.77 0.85 0.96 0.94
0.89 0.87 0.76 0.73 0.80 0.86 0.82 0.76 0.66 0.62 0.60 0.52 0.51 0.52 0.51 0.49 0.40 0.34 0.34 0.34 0.37 0.34 0.33 0.32 0.32 0.30 0.29 0.30 0.35 0.48 0.57 0.54 0.49 0.54 0.69 0.86 0.91 0.89 0.79 0.80 0.92 0.99 1.00
0.72 0.77 0.76 0.73 0.72 0.72 0.72 0.74 0.66 0.60 0.59 0.56 0.55 0.55 0.53 0.48 0.40 0.35 0.34 0.33 0.33 0.34 0.35 0.35 0.33 0.27 0.23 0.24 0.31 0.42 0.48 0.45 0.52 0.69 0.91 1.02 0.99 0.90 0.79 0.75 0.83 0.94 1.01
0.72 0.79 0.77 0.74 0.63 0.63 0.73 0.75 0.68 0.61 0.57 0.56 0.56 0.57 0.52 0.48 0.42 0.37 0.36 0.33 0.32 0.32 0.34 0.32 0.30 0.27 0.24 0.24 0.27 0.33 0.35 0.43 0.63 0.84 0.96 0.93 0.79 0.68 0.65 0.63 0.65 0.74 0.87
0.74 0.76 0.75 0.69 0.66 0.66 0.71 0.73 0.69 0.63 0.54 0.50 0.52 0.54 0.49 0.43 0.38 0.33 0.32 0.30 0.29 0.29 0.30 0.28 0.27 0.29 0.30 0.37 0.38 0.36 0.42 0.58 0.74 0.84 0.87 0.80 0.69 0.62 0.58 0.59 0.57 0.66 0.71
0.75 0.72 0.71 0.73 0.72 0.66 0.63 0.59 0.58 0.54 0.48 0.44 0.45 0.45 0.41 0.37 0.29 0.23 0.25 0.26 0.27 0.29 0.30 0.33 0.41 0.45 0.47 0.49 0.53 0.58 0.60 0.64 0.64 0.72 0.73 0.67 0.59 0.55 0.54 0.51 0.56 0.61 0.67
0.68 0.63 0.63 0.67 0.67 0.63 0.52 0.45 0.41 0.35 0.27 0.27 0.29 0.28 0.29 0.26 0.20 0.20 0.23 0.25 0.23 0.24 0.28 0.40 0.56 0.61 0.62 0.60 0.59 0.59 0.61 0.60 0.61 0.61 0.60 0.58 0.56 0.52 0.50 0.46 0.48 0.52 0.60
0.61 0.56 0.53 0.55 0.54 0.49 0.44 0.38 0.30 0.20 0.16 0.13 0.12 0.13 0.14 0.16 0.14 0.12 0.15 0.20 0.20 0.24 0.31 0.52 0.61 0.64 0.66 0.59 0.55 0.50 0.49 0.50 0.49 0.49 0.51 0.52 0.53 0.51 0.50 0.46 0.44 0.47 0.53
0.53 0.50 0.43 0.40 0.45 0.43 0.38 0.36 0.35 0.23 0.13 0.09 0.08 0.10 0.12 0.14 0.14 0.12 0.13 0.19 0.23 0.27 0.35 0.48 0.56 0.61 0.60 0.52 0.48 0.47 0.47 0.46 0.43 0.42 0.45 0.47 0.47 0.46 0.46 0.47 0.45 0.45 0.48
0.40 0.33 0.32 0.34 0.35 0.33 0.30 0.27 0.27 0.31 0.28 0.22 0.13 0.09 0.11 0.13 0.14 0.15 0.15 0.23 0.30 0.30 0.35 0.41 0.46 0.49 0.50 0.47 0.43 0.41 0.41 0.40 0.38 0.38 0.40 0.42 0.43 0.42 0.40 0.41 0.42 0.39 0.42
0.31 0.28 0.27 0.27 0.26 0.24 0.22 0.19 0.18 0.20 0.26 0.28 0.25 0.16 0.13 0.15 0.19 0.21 0.20 0.23 0.28 0.30 0.31 0.35 0.36 0.36 0.36 0.37 0.39 0.37 0.34 0.34 0.33 0.33 0.34 0.37 0.38 0.37 0.38 0.34 0.32 0.29 0.32
0.28 0.23 0.20 0.19 0.18 0.17 0.16 0.15 0.15 0.16 0.20 0.24 0.23 0.17 0.15 0.22 0.28 0.27 0.22 0.20 0.21 0.24 0.27 0.30 0.30 0.29 0.28 0.28 0.28 0.28 0.28 0.26 0.24 0.25 0.30 0.35 0.35 0.34 0.33 0.30 0.29 0.32 0.33
0.18 0.16 0.13 0.12 0.13 0.12 0.11 0.10 0.10 0.12 0.16 0.18 0.15 0.11 0.15 0.24 0.30 0.27 0.22 0.20 0.22 0.23 0.26 0.27 0.25 0.24 0.23 0.22 0.21 0.21 0.21 0.21 0.21 0.23 0.26 0.31 0.30 0.28 0.27 0.24 0.21 0.21 0.22
0.15 0.15 0.11 0.08 0.08 0.09 0.09 0.08 0.07 0.09 0.11 0.11 0.11 0.10 0.14 0.19 0.24 0.25 0.23 0.22 0.22 0.24 0.24 0.25 0.24 0.23 0.22 0.21 0.19 0.18 0.19 0.21 0.23 0.25 0.27 0.28 0.26 0.23 0.20 0.19 0.18 0.16 0.16
0.12 0.13 0.12 0.09 0.08 0.07 0.07 0.06 0.05 0.05 0.06 0.07 0.08 0.09 0.11 0.14 0.18 0.23 0.24 0.21 0.21 0.21 0.20 0.20 0.20 0.19 0.18 0.16 0.15 0.15 0.16 0.18 0.18 0.21 0.24 0.25 0.22 0.20 0.18 0.18 0.18 0.18 0.17
0.10 0.10 0.09 0.07 0.07 0.08 0.06 0.05 0.04 0.03 0.05 0.07 0.07 0.09 0.10 0.12 0.14 0.20 0.25 0.24 0.21 0.20 0.18 0.15 0.14 0.14 0.14 0.13 0.12 0.11 0.11 0.12 0.13 0.15 0.19 0.19 0.17 0.17 0.15 0.14 0.15 0.16 0.18
0.09 0.09 0.07 0.05 0.05 0.05 0.05 0.04 0.04 0.04 0.05 0.07 0.07 0.09 0.09 0.07 0.10 0.14 0.20 0.23 0.23 0.19 0.14 0.12 0.11 0.10 0.11 0.11 0.11 0.10 0.11 0.11 0.10 0.11 0.15 0.17 0.14 0.14 0.16 0.16 0.19 0.18 0.18
0.07 0.07 0.05 0.05 0.05 0.04 0.04 0.04 0.05 0.06 0.06 0.06 0.06 0.07 0.07 0.07 0.09 0.10 0.12 0.15 0.19 0.19 0.14 0.11 0.09 0.08 0.08 0.09 0.09 0.09 0.08 0.08 0.07 0.09 0.13 0.17 0.15 0.13 0.13 0.14 0.17 0.20 0.21